Fort Payne, AL

2:57 PM CDT on March 27, 2017 (GMT -0500)
Fort Payne

Weather History for K4A9 - January, 2012

Change the Weather History Date:

Friday, January 20, 2012

  Actual Average (KRMG) Record (KRMG)
Temperature  
Mean Temperature 50 °F -  
Max Temperature 55 °F 51 °F 74 °F (2017)
Min Temperature 46 °F 30 °F 16 °F (2008)
Degree Days  
Heating Degree Days 14    
Moisture  
Dew Point 47 °F    
Average Humidity 87    
Maximum Humidity 94    
Minimum Humidity 71    
Precipitation  
Precipitation 0.09 in - - ()
Sea Level Pressure  
Sea Level Pressure 29.99 in    
Wind  
Wind Speed 1 mph (ESE)    
Max Wind Speed 6 mph    
Max Gust Speed -    
Visibility 8 miles    
Events Rain    
Averages and records for this station are not official NWS values.
T = Trace of Precipitation, MM = Missing Value Source: NWS Daily Summary

Daily Weather History Graph

Daily Weather History Graph

Search for Another Location

Airport or City:

Trip Planner

Search our weather history database for the weather conditions in past years. The results will help you decide how hot, cold, wet, or windy it might be!

Date:

Astronomy

Jan. 20, 2012 Rise Set
Actual Time 6:47 AM CST 5:00 PM CST
Civil Twilight 6:20 AM CST 5:27 PM CST
Nautical Twilight 5:50 AM CST 5:57 PM CST
Astronomical Twilight 5:19 AM CST 6:27 PM CST
Moon 4:21 AM CST (1/20) 2:33 PM CST (1/20)
Length of Visible Light 11h 06m
Length of Day
10h 12m
Waning Crescent, 8% of the Moon is Illuminated
Jan 20
Waning Crescent
Jan 23
New
Jan 30
First Quarter
Feb 7
Full
Feb 14
Last Quarter

Hourly Weather History & Observations

Time (CST) Temp. Windchill Dew Point Humidity Pressure Visibility Wind Dir Wind Speed Gust Speed Precip Events Conditions
12:15 AM 48.2 °F - 39.2 °F 71% 30.02 in 10.0 mi Calm Calm - N/A   Overcast
12:35 AM 48.2 °F - 41.0 °F 76% 30.02 in 10.0 mi Calm Calm - N/A   Overcast
12:55 AM 48.2 °F - 39.2 °F 71% 30.02 in 10.0 mi Calm Calm - N/A   Overcast
1:15 AM 48.2 °F - 41.0 °F 76% 30.02 in 10.0 mi Calm Calm - N/A   Overcast
1:35 AM 48.2 °F - 41.0 °F 76% 30.02 in 10.0 mi NNE 3.5 mph - N/A   Overcast
1:55 AM 50.0 °F - 41.0 °F 71% 30.02 in 10.0 mi Calm Calm - N/A   Overcast
2:15 AM 48.2 °F - 41.0 °F 76% 30.02 in 10.0 mi Calm Calm - N/A   Drizzle
2:35 AM 48.2 °F - 41.0 °F 76% 30.02 in 10.0 mi Calm Calm - N/A   Overcast
2:55 AM 46.4 °F 44.3 °F 42.8 °F 87% 30.02 in 10.0 mi NNE 4.6 mph - N/A   Overcast
3:15 AM 48.2 °F - 42.8 °F 82% 30.01 in 10.0 mi Calm Calm - N/A Rain Rain
3:35 AM 48.2 °F - 42.8 °F 82% 30.01 in 10.0 mi Calm Calm - N/A Rain Rain
3:55 AM 46.4 °F - 44.6 °F 93% 30.01 in 7.0 mi Calm Calm - N/A Rain Rain
4:15 AM 46.4 °F - 44.6 °F 93% 30.01 in 7.0 mi Calm Calm - 0.01 in Rain Rain
4:35 AM 46.4 °F - 44.6 °F 93% 30.01 in 7.0 mi Calm Calm - 0.02 in   Light Drizzle
4:55 AM 46.4 °F - 44.6 °F 93% 30.01 in 10.0 mi Calm Calm - 0.02 in   Overcast
5:15 AM 46.4 °F 44.3 °F 44.6 °F 93% 30.00 in 10.0 mi NNE 4.6 mph - N/A   Overcast
5:35 AM 48.2 °F - 44.6 °F 87% 30.01 in 10.0 mi Calm Calm - N/A   Overcast
5:55 AM 48.2 °F - 44.6 °F 87% 30.01 in 10.0 mi North 4.6 mph - N/A   Overcast
6:15 AM 48.2 °F - 44.6 °F 87% 30.02 in 10.0 mi Calm Calm - N/A   Overcast
6:35 AM 48.2 °F - 46.4 °F 93% 30.02 in 10.0 mi Calm Calm - N/A   Overcast
6:55 AM 48.2 °F - 44.6 °F 87% 30.02 in 7.0 mi NNE 3.5 mph - N/A   Overcast
7:15 AM 48.2 °F - 44.6 °F 87% 30.03 in 7.0 mi Calm Calm - N/A   Overcast
7:35 AM 48.2 °F - 44.6 °F 87% 30.03 in 7.0 mi North 4.6 mph - N/A   Overcast
7:55 AM 48.2 °F - 46.4 °F 93% 30.04 in 5.0 mi Calm Calm - N/A Rain Light Rain
8:15 AM 50.0 °F - 46.4 °F 87% 30.04 in 7.0 mi NNE 3.5 mph - N/A   Overcast
8:35 AM 50.0 °F - 46.4 °F 87% 30.04 in 5.0 mi Calm Calm - 0.01 in Rain Rain
8:55 AM 50.0 °F - 48.2 °F 94% 30.04 in 10.0 mi ESE 4.6 mph - 0.02 in   Overcast
9:15 AM 51.8 °F - 46.4 °F 82% 30.04 in 10.0 mi Calm Calm - N/A   Overcast
9:35 AM 51.8 °F - 48.2 °F 88% 30.05 in 10.0 mi Calm Calm - N/A   Overcast
9:55 AM 51.8 °F - 46.4 °F 82% 30.04 in 10.0 mi SE 4.6 mph - N/A   Overcast
10:15 AM 51.8 °F - 48.2 °F 88% 30.04 in 10.0 mi SSE 4.6 mph - N/A   Overcast
10:35 AM 51.8 °F - 48.2 °F 88% 30.02 in 5.0 mi Calm Calm - N/A   Overcast
10:55 AM 53.6 °F - 50.0 °F 88% 30.01 in 10.0 mi ESE 3.5 mph - N/A   Overcast
11:15 AM 53.6 °F - 50.0 °F 88% 30.01 in 10.0 mi Calm Calm - N/A   Overcast
11:35 AM 55.4 °F - 50.0 °F 82% 29.99 in 10.0 mi South 4.6 mph - N/A   Overcast
11:55 AM 55.4 °F - 51.8 °F 88% 29.98 in 10.0 mi SSW 5.8 mph - N/A   Overcast
12:15 PM 55.4 °F - 51.8 °F 88% 29.97 in 10.0 mi Calm Calm - N/A   Overcast
12:35 PM 53.6 °F - 50.0 °F 88% 29.96 in 7.0 mi Calm Calm - N/A   Overcast
12:55 PM 53.6 °F - 50.0 °F 88% 29.95 in 7.0 mi Calm Calm - N/A   Overcast
1:15 PM 55.4 °F - 51.8 °F 88% 29.95 in 7.0 mi Calm Calm - N/A   Overcast
1:35 PM 55.4 °F - 51.8 °F 88% 29.94 in 7.0 mi South 5.8 mph - N/A   Overcast
1:55 PM 55.4 °F - 51.8 °F 88% 29.94 in 7.0 mi Calm Calm - N/A   Overcast
2:15 PM 55.4 °F - 51.8 °F 88% 29.94 in 2.5 mi SSW 4.6 mph - N/A   Drizzle
2:35 PM 55.4 °F - 51.8 °F 88% 29.94 in 3.0 mi Calm Calm - N/A Rain Rain
2:55 PM 55.4 °F - 53.6 °F 94% 29.94 in 2.5 mi Calm Calm - 0.01 in   Drizzle
3:15 PM 55.4 °F - 53.6 °F 94% 29.93 in 2.5 mi Calm Calm - 0.01 in   Drizzle
3:55 PM 55.4 °F - 53.6 °F 94% 29.93 in 7.0 mi Calm Calm - 0.02 in   Overcast
4:15 PM 55.4 °F - 53.6 °F 94% 29.94 in 5.0 mi NNW 4.6 mph - N/A Rain Light Rain
4:35 PM 55.4 °F - 53.6 °F 94% 29.94 in 7.0 mi SW 4.6 mph - 0.01 in Rain Light Rain
4:55 PM 55.4 °F - 53.6 °F 94% 29.94 in 10.0 mi Calm Calm - 0.01 in   Light Drizzle
5:15 PM 55.4 °F - 53.6 °F 94% 29.95 in 10.0 mi SSW 4.6 mph - N/A   Overcast
5:35 PM 55.4 °F - 53.6 °F 94% 29.95 in 10.0 mi Calm Calm - N/A   Overcast
5:55 PM 55.4 °F - 53.6 °F 94% 29.95 in 10.0 mi Calm Calm - N/A   Overcast
6:15 PM 55.4 °F - 53.6 °F 94% 29.95 in 10.0 mi ESE 3.5 mph - 0.01 in Rain Light Rain
6:35 PM 55.4 °F - 53.6 °F 94% 29.94 in 10.0 mi ESE 4.6 mph - 0.01 in   Overcast
6:55 PM 57.2 °F - 53.6 °F 88% 29.94 in 10.0 mi SE 3.5 mph - 0.01 in Rain Rain
7:15 PM 57.2 °F - 55.4 °F 94% 29.94 in 3.0 mi West 3.5 mph - 0.20 in Rain Heavy Rain
7:35 PM 57.2 °F - 55.4 °F 94% 29.95 in 2.5 mi Calm Calm - 0.39 in Rain Heavy Rain
7:55 PM 57.2 °F - 55.4 °F 94% 29.95 in 10.0 mi SSE 3.5 mph - 0.41 in   Overcast
8:15 PM 57.2 °F - 55.4 °F 94% 29.94 in 10.0 mi Calm Calm - N/A   Overcast
8:35 PM 57.2 °F - 55.4 °F 94% 29.93 in 5.0 mi Calm Calm - N/A   Overcast
8:55 PM 55.4 °F - 53.6 °F 94% 29.93 in 3.0 mi Calm Calm - N/A   Overcast
9:15 PM 57.2 °F - 55.4 °F 94% 29.93 in 7.0 mi Calm Calm - N/A   Overcast
9:35 PM 60.8 °F - 59.0 °F 94% 29.93 in 10.0 mi South 6.9 mph - N/A   Overcast
9:55 PM 60.8 °F - 59.0 °F 94% 29.93 in 10.0 mi SSW 6.9 mph - N/A   Overcast
10:15 PM 60.8 °F - 59.0 °F 94% 29.92 in 10.0 mi SSW 8.1 mph - N/A   Overcast
10:35 PM 60.8 °F - 59.0 °F 94% 29.92 in 10.0 mi WSW 5.8 mph - N/A   Overcast
10:55 PM 60.8 °F - 59.0 °F 94% 29.92 in 7.0 mi SW 3.5 mph - N/A   Overcast
11:15 PM 60.8 °F - 59.0 °F 94% 29.92 in 7.0 mi SW 8.1 mph - N/A   Overcast
11:35 PM 62.6 °F - 60.8 °F 94% 29.91 in 7.0 mi SW 8.1 mph - N/A   Overcast
11:55 PM 62.6 °F - 60.8 °F 94% 29.91 in 7.0 mi SW 9.2 mph - N/A   Overcast